Location: Appeville
(49.3218°N, 1.3427°W)
Time: 14:37:27
(UTC+00:00)

STARLINK 1016 - Pass Details

Date: 08 December 2019
Orbit: 347 x 352 km, 53.0° (Epoch: 27 January)

Event Time Altitude Azimuth Distance (km) Brightness Sun altitude
Exits shadow 05:27:22 41° 111° (ESE) 521 4.0 -21.7°
Drops below altitude 10° 05:29:25 10° 113° (ESE) 1,315 6.7 -21.4°
Sets 05:31:25 0° 114° (ESE) 2,154 8.1 -21.1°
